Weather History for Mora, MN

Change the Weather History Date:

Wednesday, November 21, 2012

  Actual Average Record
Temperature  
Mean Temperature 40 °F -  
Max Temperature 53 °F 35 °F 129 °F (1997)
Min Temperature 26 °F 17 °F -3 °F (1978)
Degree Days  
Heating Degree Days 26    
Moisture  
Dew Point 31 °F    
Average Humidity 76    
Maximum Humidity 93    
Minimum Humidity 47    
Precipitation  
Precipitation 0.00 in - - ()
Sea Level Pressure  
Sea Level Pressure 29.87 in    
Wind  
Wind Speed 2 mph (SSE)    
Max Wind Speed 7 mph    
Max Gust Speed -    
Visibility 9 miles    
Events      
Averages and records for this station are not official NWS values.
T = Trace of Precipitation, MM = Missing Value Source: NWS Daily Summary

Daily Weather History Graph

Daily Weather History Graph

Search for Another Location

Airport:

Trip Planner

Search our weather history database for the weather conditions in past years. The results will help you decide how hot, cold, wet, or windy it might be!

Date:

Astronomy

Nov. 21, 2012 Rise Set
Actual Time 7:22 AM CST 4:35 PM CST
Civil Twilight 6:49 AM CST 5:08 PM CST
Nautical Twilight 6:12 AM CST 5:45 PM CST
Astronomical Twilight 5:37 AM CST 6:20 PM CST
Moon 1:10 PM CST (11/21) 12:22 AM CST (11/21)
Length of Visible Light 10h 19m
Length of Day
9h 13m
First Quarter, 62% of the Moon is Illuminated
Nov 21
First Quarter
Nov 28
Full
Dec 6
Last Quarter
Dec 13
New
Dec 19
First Quarter

Hourly Weather History & Observations

Time (CST) Temp. Windchill Dew Point Humidity Pressure Visibility Wind Dir Wind Speed Gust Speed Precip Events Conditions
12:01 AM 26.6 °F 22.6 °F 23.0 °F 86% 30.02 in 10.0 mi East 3.5 mph - N/A   Clear
12:21 AM 26.6 °F - 24.8 °F 93% 30.02 in 10.0 mi Calm Calm - N/A   Clear
12:41 AM 28.4 °F - 24.8 °F 86% 30.02 in 10.0 mi Calm Calm - N/A   Clear
1:01 AM 28.4 °F - 26.6 °F 93% 30.00 in 10.0 mi Calm Calm - N/A   Clear
1:21 AM 26.6 °F - 24.8 °F 93% 30.00 in 10.0 mi Calm Calm - N/A   Clear
1:41 AM 28.4 °F - 24.8 °F 86% 29.99 in 7.0 mi Calm Calm - N/A   Clear
2:01 AM 28.4 °F - 24.8 °F 86% 29.98 in 10.0 mi Calm Calm - N/A   Clear
2:21 AM 30.2 °F - 26.6 °F 86% 29.98 in 7.0 mi Calm Calm - N/A   Clear
2:41 AM 28.4 °F - 26.6 °F 93% 29.97 in 5.0 mi Calm Calm - N/A   Clear
3:01 AM 28.4 °F - 26.6 °F 93% 29.96 in 7.0 mi Calm Calm - N/A   Clear
3:21 AM 28.4 °F - 24.8 °F 86% 29.97 in 7.0 mi Calm Calm - N/A   Clear
3:41 AM 28.4 °F - 26.6 °F 93% 29.96 in 5.0 mi Calm Calm - N/A   Clear
4:01 AM 26.6 °F - 24.8 °F 93% 29.95 in 7.0 mi Calm Calm - N/A   Clear
4:21 AM 28.4 °F - 26.6 °F 93% 29.94 in 5.0 mi Calm Calm - N/A   Clear
4:41 AM 26.6 °F - 24.8 °F 93% 29.94 in 5.0 mi Calm Calm - N/A   Clear
5:01 AM 26.6 °F - 24.8 °F 93% 29.94 in 5.0 mi Calm Calm - N/A   Clear
5:21 AM 26.6 °F - 24.8 °F 93% 29.94 in 7.0 mi Calm Calm - N/A   Clear
5:41 AM 26.6 °F - 24.8 °F 93% 29.94 in 5.0 mi Calm Calm - N/A   Clear
6:01 AM 26.6 °F - 24.8 °F 93% 29.93 in 7.0 mi Calm Calm - N/A   Clear
6:21 AM 26.6 °F - 24.8 °F 93% 29.94 in 7.0 mi Calm Calm - N/A   Clear
6:41 AM 26.6 °F - 24.8 °F 93% 29.94 in 5.0 mi Calm Calm - N/A   Clear
7:01 AM 26.6 °F - 24.8 °F 93% 29.94 in 7.0 mi Calm Calm - N/A   Clear
7:21 AM 26.6 °F - 24.8 °F 93% 29.94 in 7.0 mi Calm Calm - N/A   Clear
7:41 AM 26.6 °F - 24.8 °F 93% 29.94 in 5.0 mi Calm Calm - N/A   Clear
8:01 AM 26.6 °F - 24.8 °F 93% 29.94 in 4.0 mi Calm Calm - N/A   Clear
8:21 AM 26.6 °F - 24.8 °F 93% 29.94 in 5.0 mi Calm Calm - N/A   Clear
8:41 AM 30.2 °F - 28.4 °F 93% 29.94 in 5.0 mi Calm Calm - N/A   Clear
9:01 AM 32.0 °F - 30.2 °F 93% 29.93 in 5.0 mi Calm Calm - N/A   Clear
9:21 AM 33.8 °F - 32.0 °F 93% 29.94 in 7.0 mi Calm Calm - N/A   Clear
9:41 AM 35.6 °F - 32.0 °F 87% 29.94 in 7.0 mi Calm Calm - N/A   Clear
10:01 AM 37.4 °F - 32.0 °F 81% 29.94 in 10.0 mi Calm Calm - N/A   Clear
10:21 AM 37.4 °F - 32.0 °F 81% 29.94 in 10.0 mi Calm Calm - N/A   Clear
10:41 AM 42.8 °F 40.1 °F 33.8 °F 70% 29.92 in 10.0 mi SSW 4.6 mph - N/A   Clear
11:01 AM 42.8 °F 41.1 °F 33.8 °F 70% 29.92 in 10.0 mi SSW 3.5 mph - N/A   Clear
11:21 AM 44.6 °F 42.2 °F 35.6 °F 71% 29.92 in 10.0 mi SSW 4.6 mph - N/A   Clear
11:41 AM 44.6 °F 41.4 °F 33.8 °F 66% 29.91 in 10.0 mi SSW 5.8 mph - N/A   Clear
12:01 PM 46.4 °F 44.3 °F 33.8 °F 62% 29.91 in 10.0 mi SSW 4.6 mph - N/A   Clear
12:21 PM 48.2 °F - 35.6 °F 62% 29.90 in 10.0 mi SSW 4.6 mph - N/A   Clear
12:41 PM 50.0 °F - 35.6 °F 58% 29.90 in 10.0 mi South 3.5 mph - N/A   Clear
1:01 PM 50.0 °F - 35.6 °F 58% 29.89 in 10.0 mi SSE 4.6 mph - N/A   Clear
1:21 PM 50.0 °F - 35.6 °F 58% 29.88 in 10.0 mi Calm Calm - N/A   Clear
1:41 PM 53.6 °F - 35.6 °F 51% 29.87 in 10.0 mi Calm Calm - N/A   Clear
2:01 PM 53.6 °F - 33.8 °F 47% 29.86 in 10.0 mi SSE 4.6 mph - N/A   Clear
2:21 PM 53.6 °F - 33.8 °F 47% 29.86 in 10.0 mi South 5.8 mph - N/A   Clear
2:41 PM 53.6 °F - 33.8 °F 47% 29.86 in 10.0 mi South 6.9 mph - N/A   Clear
3:01 PM 53.6 °F - 35.6 °F 51% 29.85 in 10.0 mi South 5.8 mph - N/A   Clear
3:21 PM 53.6 °F - 35.6 °F 51% 29.85 in 10.0 mi SSE 3.5 mph - N/A   Clear
3:41 PM 53.6 °F - 35.6 °F 51% 29.85 in 10.0 mi SSE 4.6 mph - N/A   Clear
4:06 PM 50.0 °F - 33.8 °F 54% 29.84 in 10.0 mi SSE 3.5 mph - N/A   Clear
4:21 PM 50.0 °F - 33.8 °F 54% 29.84 in 10.0 mi SE 3.5 mph - N/A   Clear
4:41 PM 50.0 °F - 35.6 °F 58% 29.83 in 10.0 mi Calm Calm - N/A   Clear
5:01 PM 48.2 °F - 33.8 °F 58% 29.82 in 10.0 mi SE 3.5 mph - N/A   Clear
5:21 PM 44.6 °F - 33.8 °F 66% 29.82 in 10.0 mi Calm Calm - N/A   Clear
5:41 PM 39.2 °F 37.0 °F 32.0 °F 75% 29.81 in 10.0 mi East 3.5 mph - N/A   Clear
6:01 PM 37.4 °F 34.9 °F 32.0 °F 81% 29.80 in 10.0 mi East 3.5 mph - N/A   Clear
6:21 PM 37.4 °F 34.9 °F 32.0 °F 81% 29.79 in 10.0 mi East 3.5 mph - N/A   Clear
6:41 PM 37.4 °F 34.9 °F 32.0 °F 81% 29.78 in 10.0 mi East 3.5 mph - N/A   Clear
7:01 PM 37.4 °F - 32.0 °F 81% 29.77 in 10.0 mi Calm Calm - N/A   Clear
7:21 PM 39.2 °F 37.0 °F 33.8 °F 81% 29.76 in 10.0 mi ESE 3.5 mph - N/A   Clear
7:41 PM 44.6 °F 43.1 °F 35.6 °F 71% 29.75 in 10.0 mi ESE 3.5 mph - N/A   Clear
8:01 PM 44.6 °F 43.1 °F 35.6 °F 71% 29.75 in 10.0 mi SE 3.5 mph - N/A   Clear
8:21 PM 41.0 °F - 33.8 °F 76% 29.74 in 10.0 mi Calm Calm - N/A   Clear
8:41 PM 39.2 °F 37.0 °F 33.8 °F 81% 29.73 in 10.0 mi SE 3.5 mph - N/A   Clear
9:01 PM 41.0 °F 38.0 °F 33.8 °F 76% 29.72 in 10.0 mi SE 4.6 mph - N/A   Clear
9:21 PM 42.8 °F 40.1 °F 35.6 °F 76% 29.72 in 10.0 mi SSE 4.6 mph - N/A   Clear
9:41 PM 46.4 °F 42.9 °F 37.4 °F 71% 29.70 in 10.0 mi SSE 6.9 mph - N/A   Clear
10:01 PM 50.0 °F - 37.4 °F 62% 29.70 in 10.0 mi SSE 6.9 mph - N/A   Clear
10:21 PM 48.2 °F - 37.4 °F 66% 29.69 in 10.0 mi SSE 5.8 mph - N/A   Clear
10:41 PM 50.0 °F - 39.2 °F 66% 29.68 in 10.0 mi SSE 6.9 mph - N/A   Clear
11:01 PM 50.0 °F - 37.4 °F 62% 29.67 in 10.0 mi SSE 6.9 mph - N/A   Clear
11:21 PM 50.0 °F - 37.4 °F 62% 29.67 in 10.0 mi SSE 6.9 mph - N/A   Clear
11:41 PM 50.0 °F - 37.4 °F 62% 29.66 in 10.0 mi SSE 6.9 mph - N/A   Clear